TimeCST,TemperatureF,Dew PointF,Humidity,Sea Level PressureIn,VisibilityMPH,Wind Direction,Wind SpeedMPH,Gust SpeedMPH,PrecipitationIn,Events,Conditions,WindDirDegrees,DateUTC
12:15 AM,32.0,24.8,75,30.17,10.0,WNW,3.5,-,N/A,,Clear,290,2013-03-02 06:15:00
12:35 AM,30.2,24.8,80,30.16,10.0,Calm,Calm,-,N/A,,Clear,0,2013-03-02 06:35:00
12:55 AM,30.2,26.6,86,30.16,9.0,Calm,Calm,-,N/A,,Clear,0,2013-03-02 06:55:00
1:15 AM,30.2,24.8,80,30.16,10.0,Calm,Calm,-,N/A,,Clear,0,2013-03-02 07:15:00
1:35 AM,30.2,24.8,80,30.16,10.0,NW,3.5,-,N/A,,Clear,310,2013-03-02 07:35:00
1:55 AM,30.2,24.8,80,30.16,10.0,West,3.5,-,N/A,,Clear,280,2013-03-02 07:55:00
2:15 AM,28.4,24.8,86,30.15,10.0,Calm,Calm,-,N/A,,Clear,0,2013-03-02 08:15:00
2:35 AM,30.2,24.8,80,30.14,10.0,WNW,3.5,-,N/A,,Clear,300,2013-03-02 08:35:00
2:55 AM,28.4,24.8,86,30.14,10.0,Calm,Calm,-,N/A,,Clear,0,2013-03-02 08:55:00
3:15 AM,28.4,21.2,74,30.14,10.0,WNW,3.5,-,N/A,,Clear,290,2013-03-02 09:15:00
3:35 AM,30.2,24.8,80,30.14,10.0,West,3.5,-,N/A,,Clear,280,2013-03-02 09:35:00
3:55 AM,30.2,24.8,80,30.14,10.0,West,4.6,-,N/A,,Clear,280,2013-03-02 09:55:00
4:15 AM,30.2,24.8,80,30.15,10.0,West,4.6,-,N/A,,Clear,270,2013-03-02 10:15:00
4:35 AM,28.4,24.8,86,30.16,10.0,West,5.8,-,N/A,,Clear,280,2013-03-02 10:35:00
4:55 AM,28.4,24.8,86,30.16,10.0,West,5.8,-,N/A,,Clear,280,2013-03-02 10:55:00
5:15 AM,30.2,24.8,80,30.16,10.0,West,4.6,-,N/A,,Mostly Cloudy,280,2013-03-02 11:15:00
5:35 AM,30.2,24.8,80,30.16,10.0,WNW,4.6,-,N/A,,Mostly Cloudy,290,2013-03-02 11:35:00
5:55 AM,30.2,24.8,80,30.17,10.0,WNW,4.6,-,N/A,,Mostly Cloudy,290,2013-03-02 11:55:00
6:35 AM,30.2,24.8,80,30.18,10.0,WNW,4.6,-,N/A,,Mostly Cloudy,290,2013-03-02 12:35:00
6:55 AM,30.2,24.8,80,30.18,9.0,West,3.5,-,N/A,,Overcast,280,2013-03-02 12:55:00
7:15 AM,30.2,24.8,80,30.19,9.0,WNW,3.5,-,N/A,,Overcast,300,2013-03-02 13:15:00
7:35 AM,33.8,26.6,75,30.20,8.0,NW,4.6,-,N/A,,Mostly Cloudy,310,2013-03-02 13:35:00
7:55 AM,35.6,26.6,70,30.21,9.0,NNW,6.9,-,N/A,,Partly Cloudy,330,2013-03-02 13:55:00
8:15 AM,35.6,26.6,70,30.21,10.0,NNW,8.1,-,N/A,,Clear,340,2013-03-02 14:15:00
8:35 AM,37.4,26.6,65,30.21,10.0,NNW,8.1,-,N/A,,Mostly Cloudy,330,2013-03-02 14:35:00
8:55 AM,39.2,26.6,61,30.21,10.0,North,13.8,17.3,N/A,,Overcast,350,2013-03-02 14:55:00
9:15 AM,39.2,24.8,56,30.21,10.0,North,10.4,17.3,N/A,,Scattered Clouds,350,2013-03-02 15:15:00
9:35 AM,41.0,24.8,53,30.22,10.0,NW,11.5,21.9,N/A,,Mostly Cloudy,320,2013-03-02 15:35:00
9:55 AM,41.0,24.8,53,30.22,10.0,NNW,10.4,-,N/A,,Overcast,340,2013-03-02 15:55:00
10:15 AM,41.0,23.0,49,30.21,10.0,NNW,11.5,19.6,N/A,,Overcast,330,2013-03-02 16:15:00
10:35 AM,41.0,23.0,49,30.21,10.0,NW,10.4,16.1,N/A,,Overcast,320,2013-03-02 16:35:00
10:55 AM,41.0,23.0,49,30.21,10.0,NNW,13.8,-,N/A,,Overcast,340,2013-03-02 16:55:00
11:15 AM,42.8,24.8,49,30.21,10.0,NW,11.5,18.4,N/A,,Overcast,310,2013-03-02 17:15:00
11:35 AM,41.0,23.0,49,30.21,10.0,NW,10.4,19.6,N/A,,Overcast,320,2013-03-02 17:35:00
11:55 AM,41.0,23.0,49,30.20,10.0,NW,10.4,-,N/A,,Overcast,320,2013-03-02 17:55:00
12:15 PM,41.0,21.2,45,30.19,10.0,NNW,15.0,19.6,N/A,,Overcast,330,2013-03-02 18:15:00
12:35 PM,41.0,21.2,45,30.18,10.0,NNW,15.0,20.7,N/A,,Overcast,330,2013-03-02 18:35:00
12:55 PM,41.0,21.2,45,30.17,10.0,NW,9.2,19.6,N/A,,Overcast,310,2013-03-02 18:55:00
1:15 PM,41.0,21.2,45,30.17,10.0,NNW,12.7,18.4,N/A,,Overcast,330,2013-03-02 19:15:00
1:35 PM,39.2,21.2,49,30.17,10.0,NNW,13.8,21.9,N/A,,Overcast,340,2013-03-02 19:35:00
1:55 PM,39.2,21.2,49,30.16,10.0,NW,11.5,19.6,N/A,,Overcast,320,2013-03-02 19:55:00
2:15 PM,39.2,21.2,49,30.16,10.0,NNW,15.0,21.9,N/A,,Overcast,340,2013-03-02 20:15:00
2:35 PM,39.2,21.2,49,30.16,10.0,NW,13.8,20.7,N/A,,Overcast,320,2013-03-02 20:35:00
2:55 PM,39.2,21.2,49,30.16,10.0,NNW,12.7,18.4,N/A,,Overcast,330,2013-03-02 20:55:00
3:15 PM,39.2,21.2,49,30.17,10.0,NNW,13.8,19.6,N/A,,Overcast,330,2013-03-02 21:15:00
3:35 PM,39.2,21.2,49,30.17,10.0,NNW,9.2,-,N/A,,Overcast,340,2013-03-02 21:35:00
3:55 PM,39.2,21.2,49,30.17,10.0,NW,13.8,-,N/A,,Overcast,320,2013-03-02 21:55:00
4:15 PM,37.4,23.0,56,30.17,10.0,NW,13.8,18.4,N/A,,Overcast,320,2013-03-02 22:15:00
4:35 PM,37.4,23.0,56,30.17,10.0,NNW,12.7,17.3,N/A,,Overcast,330,2013-03-02 22:35:00
4:55 PM,37.4,21.2,52,30.18,10.0,NW,13.8,19.6,N/A,,Overcast,320,2013-03-02 22:55:00
5:15 PM,37.4,21.2,52,30.19,10.0,NW,11.5,20.7,N/A,,Overcast,320,2013-03-02 23:15:00
5:35 PM,37.4,21.2,52,30.20,10.0,NNW,11.5,20.7,N/A,,Overcast,340,2013-03-02 23:35:00
5:55 PM,37.4,21.2,52,30.21,10.0,NNW,13.8,20.7,N/A,,Overcast,330,2013-03-02 23:55:00
6:15 PM,37.4,21.2,52,30.21,10.0,NNW,12.7,16.1,N/A,,Overcast,340,2013-03-03 00:15:00
6:35 PM,37.4,23.0,56,30.22,10.0,NNW,11.5,16.1,N/A,,Overcast,330,2013-03-03 00:35:00
6:55 PM,37.4,23.0,56,30.22,10.0,NNW,8.1,-,N/A,,Overcast,330,2013-03-03 00:55:00
7:15 PM,37.4,23.0,56,30.22,10.0,NW,9.2,17.3,N/A,,Overcast,320,2013-03-03 01:15:00
7:35 PM,37.4,23.0,56,30.23,10.0,NNW,11.5,18.4,N/A,,Overcast,330,2013-03-03 01:35:00
7:55 PM,35.6,21.2,56,30.23,10.0,NNW,15.0,19.6,N/A,,Overcast,340,2013-03-03 01:55:00
8:15 PM,35.6,19.4,52,30.24,10.0,NNW,8.1,19.6,N/A,,Overcast,330,2013-03-03 02:15:00
8:35 PM,35.6,21.2,56,30.24,10.0,NW,10.4,18.4,N/A,,Overcast,320,2013-03-03 02:35:00
8:55 PM,35.6,19.4,52,30.25,10.0,NW,12.7,16.1,N/A,,Overcast,320,2013-03-03 02:55:00
9:15 PM,35.6,19.4,52,30.25,10.0,NNW,13.8,26.5,N/A,,Overcast,340,2013-03-03 03:15:00
9:35 PM,35.6,19.4,52,30.25,10.0,NNW,9.2,-,N/A,,Overcast,340,2013-03-03 03:35:00
9:55 PM,35.6,19.4,52,30.25,10.0,NNW,5.8,16.1,N/A,,Overcast,340,2013-03-03 03:55:00
10:15 PM,35.6,19.4,52,30.24,10.0,NNW,6.9,-,N/A,,Overcast,330,2013-03-03 04:15:00
10:35 PM,35.6,21.2,56,30.24,10.0,North,6.9,-,N/A,,Overcast,350,2013-03-03 04:35:00
10:55 PM,33.8,19.4,56,30.23,10.0,North,5.8,-,N/A,,Partly Cloudy,350,2013-03-03 04:55:00
11:15 PM,32.0,19.4,60,30.23,10.0,North,5.8,-,N/A,,Clear,350,2013-03-03 05:15:00
11:35 PM,32.0,21.2,64,30.24,10.0,NNW,4.6,-,N/A,,Partly Cloudy,330,2013-03-03 05:35:00